Location: Zagreb
(45.8000°N, 16.0000°E)
Time: 12:46:39
(UTC+01:00)

Vanguard 1 Rocket - Pass Details

Date: 03 October 2020
Orbit: 656 x 4221 km, 34.3° (Epoch: 28 October)

Event Time Altitude Azimuth Distance (km) Brightness Sun altitude
Rises 01:38:17 0° 278° (W) 7,701 12.0 -46.7°
Reaches altitude 10° 01:46:36 10° 261° (W) 7,133 11.7 -46.2°
Enters shadow 01:47:13 11° 260° (W) 7,103 11.6 -46.1°
Maximum altitude 01:59:01 17° 231° (SW) 6,839 - -45.3°
Drops below altitude 10° 02:11:45 10° 200° (SSW) 7,201 - -44.2°
Sets 02:20:35 0° 182° (S) 7,780 - -43.4°
